SL-14 R/B

Satellite information

Favourite Embed

Satellite Type and Status

ROCKET BODYIN ORBIT

Key statistics

Satellite SL-14 R/B at a glance.

Uptime

12776

Days in orbit

Revolutions

≈ 12.6

Per day

Orbit

LEO

Low Earth Orbit

Inclination

82.6

Latest

Satellite identification and parameters

Extended collection of information and parameters for SL-14 R/B.

Object identification

Identified? True

Debris? False

Object name: SL-14 R/B

International designator: 1990-114G

Object number (NORAD): 21034

Object ID (CCSDS): 21034

Country: COMMONWEALTH OF INDEPENDENT STATES (CIS)

Current information (Y/N): Y

RCS size: LARGE

Orbital parameters

Period: 114.692 minutes

Inclination: 82.5668 deg

SMA: 7819.56 km

Apoapsis: 1472.88 km

Periapsis: 1409.971 km

RAAN: 87.7611 deg

Eccentricy: 0.00402249

Argument of periapsis: 73.821 deg

Mean anomaly: 357.64 deg

Mean motion: 12.55536247 rev/day

Mean motion (dot): 0.00000008 rev/day2

B* drag term: -0.000014040548 1/REarth

Two-line elements (TLE)

Creation date: Dec. 14, 2025, 3:07 a.m.

Reference frame: TEME

Reference center: EARTH

Epoch: Dec. 13, 2025, 3:55 p.m. UTC

TLE line 0: 0 SL-14 R/B

TLE line 1: 1 21034U 90114G 25347.66367083 .00000008 00000-0 -14041-4 0 9998

TLE line 2: 2 21034 82.5668 87.7611 0040225 73.8210 357.6400 12.55536247602835

Live tracking on map

Real-time ground track for satellite SL-14 R/B.

In-orbit conjunctions

A list of the most updated potential collisions computed for object SL-14 R/B.

Target Orbit TCA Probability of collision Miss distance Type
DELTA 1 DEB SSO 2024-08-13 18:35:52 0.0001039699 123.0 (m) DEBRIS

Associated space launch

Second generation store-dump military communications satellite

SL-14 R/B was lifted into orbit during the mission ‘Tsiklon-3 | Strela-3 55 to 60’, on board a Tsiklon-3 space rocket.

The launch took place on Dec. 22, 1990, 7:28 a.m. from 32/2.

For more information about the launch, click the button.

Launch to space Tsiklon-3 | Strela-3 55 to 60
Tsiklon-3 | Strela-3 55 to 60

Agency: N/A

Status: Launch Successful

Launch date: Dec. 22, 1990, 7:28 a.m. UTC

Rocket: Tsiklon-3

Launch pad: 32/2

Location: Plesetsk Cosmodrome, Russian Federation

...

Latest news about this satellite

There are no fresh news available about this satellite. Check back as we update our databases every day.


Newsletter sign-up

Weekly statistics, charts and insights to help you stay on top of the space industry.